This is the latest recevied weather packets stored in our database for station/object DM3DP. If no packets are shown the sender has not sent any weather packets the latest 10 day(s).
| Time | Temp. | Humidity | Pressure | Rain* | Wind** | Luminosity | Snow |
|---|---|---|---|---|---|---|---|
| 1777732773 | 23.33° C | 57% | 1014.6 hPa | 0 mm | - | 233 W/m² | - |
| 1777732443 | 23.33° C | 59% | 1014.7 hPa | 0 mm | - | 252 W/m² | - |
| 1777732113 | 23.33° C | 59% | 1014.7 hPa | 0 mm | - | 376 W/m² | - |
| 1777731783 | 22.78° C | 58% | 1014.9 hPa | 0 mm | - | 302 W/m² | - |
| 1777731453 | 22.22° C | 57% | 1014.9 hPa | 0 mm | - | 233 W/m² | - |
| 1777731123 | 21.67° C | 56% | 1015.2 hPa | 0 mm | - | 167 W/m² | - |
| 1777730793 | 21.67° C | 56% | 1015.2 hPa | 0 mm | - | 92 W/m² | - |
| 1777730463 | 22.22° C | 55% | 1015.1 hPa | 0 mm | - | 71 W/m² | - |
| 1777730133 | 22.22° C | 55% | 1015.2 hPa | 0 mm | - | 94 W/m² | - |
| 1777729473 | 23.33° C | 51% | 1015.2 hPa | 0 mm | - | 69 W/m² | - |
| 1777729144 | 23.89° C | 50% | 1015.1 hPa | 0 mm | - | 52 W/m² | - |
| 1777728814 | 23.89° C | 50% | 1015 hPa | 0 mm | - | 58 W/m² | - |
| 1777728483 | 24.44° C | 48% | 1014.9 hPa | 0 mm | - | 74 W/m² | - |
| 1777728154 | 25° C | 48% | 1014.9 hPa | 0 mm | - | 78 W/m² | - |
| 1777727823 | 25° C | 48% | 1014.9 hPa | 0 mm | - | 109 W/m² | - |
| 1777727494 | 25° C | 46% | 1014.9 hPa | 0 mm | - | 126 W/m² | - |
| 1777727163 | 25.56° C | 47% | 1014.9 hPa | 0 mm | - | 129 W/m² | - |
| 1777726833 | 25° C | 46% | 1015 hPa | 0 mm | - | 236 W/m² | - |
| 1777725843 | 25.56° C | 44% | 1015.3 hPa | 0 mm | - | 100 W/m² | - |
| 1777725513 | 26.11° C | 42% | 1015.4 hPa | 0 mm | - | 129 W/m² | - |
| 1777725183 | 26.67° C | 42% | 1015.4 hPa | 0 mm | - | 176 W/m² | - |
| 1777724853 | 26.67° C | 42% | 1015.4 hPa | 0 mm | - | 449 W/m² | - |
| 1777724193 | 26.67° C | 43% | 1015.6 hPa | 0 mm | - | 598 W/m² | - |
| 1777723863 | 26.67° C | 44% | 1015.7 hPa | 0 mm | - | 490 W/m² | - |
| 1777723533 | 26.11° C | 43% | 1015.8 hPa | 0 mm | - | 605 W/m² | - |
* Rain latest hour (hover to see other rain measurements)
** Current wind speed in m/s (hover to see current wind gust speed)